[[{"header":{"parameterUnit":"m.s-1","parameterCategory":1,"la1":30.2991,"la2":30.254,"lo1":-89.0895,"lo2":-89.0444,"dy":0.0017,"dx":0.0017,"nx":28,"ny":28,"refTime":"2025-01-11T09:00:00:Z","depth":0,"parameterNumber":2,"parameterNumberName":"U-component_of_WINDS"},"data":[0,0,0,0,0,0,0,0,0,0,0,0,0,0,0,0,0,0,0,0,0,0,0,0,0,0,0,0,0,0,0,0,0,0,0,0,0,0,0,0,0,0,0,0,0,0,0,0,0,0,0,0,0,0,0,0,0,0,-4.0734,-4.0735,0,-4.0815,-4.0815,-4.0816,-4.0777,-4.0775,-4.0773,-4.0771,-4.0852,-4.0856,-4.086,0,0,0,0,0,0,0,0,0,0,0,0,0,-4.0544,-4.0547,-4.0734,-4.0735,-4.0736,-4.0814,-4.0815,-4.0817,-4.0778,-4.0775,-4.0773,-4.077,-4.0851,-4.0856,-4.086,0,0,0,0,0,0,0,0,0,0,0,0,0,-4.0625,-4.0548,-4.0734,-4.0726,-4.0726,-4.0814,-4.0816,-4.0817,-4.0778,-4.0775,-4.0772,-4.0769,-4.0849,-4.0855,-4.0861,-4.0961,0,0,-4.088,-4.0882,0,0,0,0,0,0,0,0,-4.0621,-4.0632,-4.0726,-4.0727,-4.0727,-4.0783,-4.0778,-4.0865,-4.0779,-4.0758,-4.0771,-4.0768,-4.0831,-4.0839,-4.0861,-4.0965,-4.0968,-4.088,-4.0884,-4.0887,-4.0888,0,0,0,0,0,0,0,-4.0615,-4.0629,-4.0766,-4.0728,-4.0728,-4.0718,-4.0726,-4.0794,-4.0811,-4.076,-4.0757,-4.0767,-4.0831,-4.0855,-4.0862,-4.0969,-4.088,-4.0886,-4.0889,-4.0892,-4.1156,-4.1159,0,0,0,0,0,0,-4.061,-4.0624,-4.0763,-4.0768,-4.0665,-4.0724,-4.0733,-4.0768,-4.081,-4.0814,-4.077,-4.0765,-4.0846,-4.0855,-4.0865,-4.0982,-4.0887,-4.0892,-4.0896,-4.1153,-4.1157,-4.1161,0,0,0,0,0,0,-4.0606,-4.0623,-4.076,-4.0696,-4.0712,-4.073,-4.077,-4.0771,-4.0795,-4.0818,-4.0821,-4.0791,-4.0844,-4.0856,-4.0937,-4.0985,-4.0895,-4.0901,-4.1149,-4.1154,-4.1159,-4.122,0,0,0,0,0,0,-4.0601,-4.0622,-4.0661,-4.0697,-4.0716,-4.0832,-4.0773,-4.0775,-4.0806,-4.08,-4.0839,-4.0842,-4.0842,-4.0928,-4.0943,-4.0992,-4.0905,-4.1145,-4.1151,-4.1157,-4.1213,-4.1226,-4.1237,0,0,0,0,0,-4.0594,-4.0675,-4.0663,-4.068,-4.0765,-4.0835,-4.0845,-4.0844,-4.081,-4.0848,-4.0863,-4.0841,-4.0977,-4.0936,-4.0953,-4.1004,-4.1142,-4.1149,-4.1157,-4.1208,-4.1224,-4.1237,0,0,0,0,0,0,-4.0644,-4.0679,-4.0667,-4.0762,-4.0795,-4.0828,-4.0876,-4.0861,-4.0905,-4.0898,-4.0895,-4.0904,-4.0986,-4.1004,-4.0957,-4.1102,-4.1054,-4.1065,-4.1087,-4.1102,-4.1114,-4.1107,-4.0911,0,0,0,0,0,-4.0666,-4.072,-4.0748,-4.0829,-4.0847,-4.0859,-4.0889,-4.0885,-4.092,-4.0934,-4.0954,-4.0988,-4.1038,-4.1071,-4.1119,-4.1216,-4.1222,-4.1259,-4.1271,-4.128,-4.129,-4.134,-4.1356,-4.1185,-4.1185,-4.1185,0,0,-4.0712,-4.0738,-4.0773,-4.084,-4.0865,-4.092,-4.0871,-4.0932,-4.0972,-4.0943,-4.102,-4.1036,-4.1073,-4.1162,-4.1202,-4.1178,-4.1338,-4.129,-4.1298,-4.1302,-4.1349,-4.1365,-4.1379,-4.119,-4.119,-4.1189,0,0,-4.0823,-4.085,-4.0919,-4.0945,-4.0985,-4.0992,-4.1009,-4.1043,-4.1053,-4.113,-4.1108,-4.1156,-4.1243,-4.127,-4.1295,-4.1415,-4.1395,-4.143,-4.1491,-4.154,-4.1553,-4.1565,-4.1606,-4.1621,-4.144,-4.144,-4.144,0,-4.0875,-4.0958,-4.0956,-4.1018,-4.1047,-4.1023,-4.1092,-4.1118,-4.1171,-4.1191,-4.1164,-4.1272,-4.1296,-4.1389,-4.1418,-4.144,-4.1457,-4.1425,-4.1552,-4.1564,-4.1575,-4.1613,-4.1629,-4.1444,-4.1443,-4.1443,-4.1442,0,-4.1019,-4.1076,-4.1127,-4.1179,-4.1214,-4.1279,-4.1286,-4.1321,-4.1314,-4.1324,-4.1401,-4.1428,-4.148,-4.1502,-4.1496,-4.1594,-4.1578,-4.1552,-4.1504,-4.1595,-4.1631,-4.1646,-4.1449,-4.1448,-4.1447,-4.1446,0,0,-4.1164,-4.1213,-4.1231,-4.1253,-4.1294,-4.1338,-4.1401,-4.1452,-4.1481,-4.1518,-4.157,-4.1644,-4.1619,-4.1647,-4.1644,-4.1687,-4.1777,-4.1655,-4.1656,-4.1675,-4.1884,-4.1902,-4.1919,-4.1765,-4.1768,-4.177,-4.188,0,-4.1277,-4.1388,-4.1387,-4.149,-4.1541,-4.1519,-4.1573,-4.1604,-4.1614,-4.1659,-4.167,-4.1721,-4.1686,-4.1703,-4.1744,-4.1758,-4.1819,-4.175,-4.1811,-4.1814,-4.1801,-4.1939,-4.1958,-4.2061,-4.1894,-4.1897,-4.1899,0,-4.1424,-4.1465,-4.1572,-4.1604,-4.1625,-4.1675,-4.172,-4.1763,-4.1796,-4.1801,-4.1832,-4.1821,-4.1884,-4.1834,-4.1919,-4.1872,-4.1898,-4.1908,-4.1911,-4.1916,-4.1861,-4.1945,-4.2094,-4.2108,-4.1921,-4.1919,-4.1918,0,-4.1516,-4.1599,-4.1673,-4.1693,-4.1732,-4.1766,-4.1784,-4.1814,-4.1844,-4.1883,-4.1902,-4.1949,-4.1973,-4.2009,-4.201,-4.1975,-4.2095,-4.2047,-4.2099,-4.2099,-4.2124,-4.2122,-4.2277,-4.2144,-4.2143,-4.2143,-4.2143,0,-4.1641,-4.1708,-4.1715,-4.176,-4.1833,-4.1831,-4.1902,-4.1917,-4.1943,-4.199,-4.1974,-4.2018,-4.2018,-4.2062,-4.2064,-4.2133,-4.2145,-4.2148,-4.2148,-4.2149,-4.2148,-4.2164,-4.2157,-4.2147,-4.2146,-4.2145,-4.2145,0,-4.1757,-4.1765,-4.1844,-4.1874,-4.1883,-4.1935,-4.196,-4.2002,-4.2011,-4.207,-4.2084,-4.2097,-4.2148,-4.2153,-4.2213,-4.2214,-4.2296,-4.2289,-4.2285,-4.2283,-4.2334,-4.2329,-4.2504,-4.2526,-4.2379,-4.2381,-4.2382,0,-4.1836,-4.1886,-4.1921,-4.1951,-4.197,-4.2019,-4.2049,-4.2049,-4.208,-4.2121,-4.2158,-4.2208,-4.2247,-4.233,-4.2344,-4.2389,-4.2381,-4.244,-4.2388,-4.2387,-4.238,-4.2376,-4.238,-4.2449,-4.2451,-4.2452,-4.2453,0,-4.1973,-4.1974,-4.2018,-4.2063,-4.2099,-4.2135,-4.2168,-4.2194,-4.2197,-4.2233,-4.2285,-4.2316,-4.2376,-4.2425,-4.2469,-4.2486,-4.247,-4.2469,-4.2483,-4.2484,-4.2479,-4.2481,-4.231,-4.2465,-4.2464,-4.2463,-4.2462,-4.2462,-4.2072,-4.2114,-4.2145,-4.2194,-4.2218,-4.2249,-4.229,-4.2303,-4.2347,-4.2396,-4.2392,-4.245,-4.2479,-4.2537,-4.2557,-4.26,-4.2581,-4.2602,-4.2607,-4.2611,-4.2616,-4.2474,-4.2609,-4.2608,-4.2608,-4.2608,-4.2608,0,-4.2207,-4.2225,-4.227,-4.2316,-4.2354,-4.2336,-4.2371,-4.2404,-4.2455,-4.2484,-4.2523,-4.2582,-4.2628,-4.2646,-4.2691,-4.2723,-4.2716,-4.2734,-4.2731,-4.2735,-4.2632,-4.2614,-4.2739,-4.2739,-4.2739,-4.2739,-4.2738,-4.2738,-4.2281,-4.2351,-4.2356,-4.2437,-4.2455,-4.251,-4.2532,-4.2559,-4.2582,-4.2649,-4.2688,-4.2699,-4.2723,-4.2769,-4.2811,-4.2814,-4.2831,-4.2852,-4.2852,-4.2756,-4.2742,-4.273,-4.2713,-4.2856,-4.2856,-4.2951,-4.2952,-4.2953]},{"header":{"parameterUnit":"m.s-1","parameterCategory":1,"la1":30.2991,"la2":30.254,"lo1":-89.0895,"lo2":-89.0444,"dy":0.0017,"dx":0.0017,"nx":28,"ny":28,"refTime":"2025-01-11T09:00:00:Z","depth":0,"parameterNumber":3,"parameterNumberName":"V-component_of_WINDS"},"data":[0,0,0,0,0,0,0,0,0,0,0,0,0,0,0,0,0,0,0,0,0,0,0,0,0,0,0,0,0,0,0,0,0,0,0,0,0,0,0,0,0,0,0,0,0,0,0,0,0,0,0,0,0,0,0,0,0,0,1.8708,1.8708,0,1.8706,1.8706,1.8706,1.8647,1.8645,1.8644,1.8642,1.8639,1.864,1.8642,0,0,0,0,0,0,0,0,0,0,0,0,0,1.8662,1.8663,1.8708,1.8708,1.8708,1.8706,1.8706,1.8706,1.8647,1.8645,1.8643,1.8642,1.8639,1.864,1.8642,0,0,0,0,0,0,0,0,0,0,0,0,0,1.8673,1.8664,1.8708,1.8679,1.8676,1.8706,1.8706,1.8706,1.8647,1.8645,1.8643,1.8641,1.8638,1.864,1.8642,1.87,0,0,1.8648,1.8649,0,0,0,0,0,0,0,0,1.8673,1.8675,1.8683,1.8681,1.8678,1.8674,1.8688,1.8704,1.8648,1.8658,1.8642,1.864,1.8653,1.8653,1.8658,1.87,1.87,1.8648,1.865,1.865,1.8651,0,0,0,0,0,0,0,1.8672,1.8675,1.8707,1.8683,1.868,1.8666,1.8665,1.8691,1.8668,1.8657,1.8653,1.8654,1.8651,1.8656,1.8657,1.87,1.8648,1.865,1.8651,1.8652,1.8789,1.8791,0,0,0,0,0,0,1.8675,1.8675,1.8707,1.8707,1.867,1.8668,1.8667,1.8678,1.8668,1.8664,1.8655,1.8651,1.8654,1.8655,1.8657,1.8724,1.865,1.8652,1.8653,1.8786,1.8789,1.8792,0,0,0,0,0,0,1.8675,1.8679,1.8708,1.869,1.8692,1.8671,1.8684,1.8679,1.8684,1.8666,1.8662,1.8665,1.8652,1.8654,1.869,1.8723,1.8653,1.8655,1.8783,1.8787,1.8791,1.8858,0,0,0,0,0,0,1.8674,1.8679,1.8701,1.8691,1.8694,1.8741,1.8686,1.8681,1.8688,1.8682,1.8674,1.8671,1.865,1.8687,1.8692,1.8724,1.8657,1.878,1.8785,1.8789,1.8853,1.8863,1.8873,0,0,0,0,0,1.8672,1.872,1.8702,1.8706,1.872,1.8743,1.8744,1.872,1.8691,1.8712,1.8701,1.8671,1.8719,1.8691,1.8696,1.873,1.8778,1.8784,1.8789,1.8848,1.8861,1.8872,0,0,0,0,0,0,1.8734,1.8718,1.8698,1.8744,1.8745,1.8733,1.8759,1.8734,1.8744,1.8738,1.8707,1.8706,1.8746,1.8741,1.8711,1.8785,1.8743,1.875,1.8786,1.8799,1.8809,1.8808,1.8658,0,0,0,0,0,1.8753,1.8772,1.8757,1.8799,1.8801,1.878,1.8789,1.877,1.877,1.877,1.8761,1.8762,1.8777,1.8788,1.8801,1.8852,1.8849,1.8878,1.8888,1.8896,1.8902,1.8928,1.894,1.881,1.881,1.881,0,0,1.8792,1.8785,1.88,1.8811,1.881,1.8831,1.8781,1.8805,1.882,1.8774,1.8806,1.8801,1.8799,1.8843,1.8862,1.884,1.8937,1.8903,1.891,1.8911,1.8935,1.8948,1.8959,1.8814,1.8813,1.8812,0,0,1.8873,1.8871,1.8905,1.8905,1.8904,1.889,1.8899,1.889,1.8884,1.8917,1.8883,1.8901,1.8927,1.8928,1.8932,1.9015,1.8988,1.902,1.9072,1.9099,1.9109,1.9118,1.9147,1.9158,1.9027,1.9027,1.9027,0,1.8922,1.8952,1.8926,1.8953,1.8959,1.8918,1.8953,1.8954,1.8957,1.8962,1.8939,1.8972,1.8968,1.9011,1.9032,1.9036,1.9045,1.9021,1.911,1.9118,1.9126,1.9154,1.9165,1.9031,1.903,1.903,1.9029,0,1.9012,1.9033,1.9061,1.9066,1.9075,1.9106,1.9084,1.9097,1.9078,1.9066,1.91,1.9095,1.9106,1.9115,1.9097,1.9156,1.9143,1.9115,1.9072,1.9143,1.9168,1.9179,1.9036,1.9035,1.9034,1.9033,0,0,1.9131,1.9121,1.9132,1.9133,1.913,1.9146,1.9175,1.9186,1.9197,1.9201,1.9224,1.9249,1.9223,1.9227,1.9209,1.9232,1.9298,1.9201,1.9201,1.9219,1.9363,1.9383,1.9396,1.928,1.9282,1.9284,1.9363,0,1.9209,1.9258,1.9236,1.9287,1.9306,1.9269,1.9294,1.9295,1.9285,1.93,1.929,1.9307,1.9272,1.9275,1.9296,1.9285,1.9326,1.928,1.9301,1.9302,1.9302,1.9409,1.9431,1.9505,1.9372,1.9374,1.9375,0,1.9307,1.9315,1.9369,1.9362,1.9369,1.9392,1.9401,1.9416,1.9416,1.9407,1.9413,1.9389,1.9417,1.9376,1.9413,1.9382,1.939,1.9386,1.9388,1.9389,1.9342,1.9412,1.9528,1.9539,1.9391,1.9389,1.9388,0,1.9388,1.9413,1.9447,1.945,1.9443,1.946,1.9458,1.9456,1.9464,1.9472,1.9477,1.9488,1.9494,1.9503,1.9483,1.9455,1.9523,1.948,1.9517,1.9517,1.9532,1.9531,1.9651,1.9539,1.9539,1.9538,1.9538,0,1.9477,1.9511,1.9484,1.9505,1.9542,1.9517,1.9554,1.9547,1.9546,1.9566,1.9534,1.9553,1.9526,1.9542,1.9527,1.956,1.9563,1.9557,1.9552,1.9559,1.956,1.9563,1.9557,1.9541,1.9541,1.954,1.954,0,1.9573,1.9556,1.9592,1.9583,1.9581,1.9609,1.9601,1.962,1.9609,1.9634,1.9639,1.9621,1.9639,1.962,1.9636,1.9626,1.9671,1.9659,1.9671,1.9667,1.9704,1.9701,1.9829,1.9845,1.9724,1.9725,1.9726,0,1.9631,1.9656,1.965,1.9661,1.9661,1.9679,1.9687,1.9664,1.9674,1.9676,1.9695,1.9711,1.9721,1.9751,1.974,1.9752,1.974,1.9784,1.9741,1.9748,1.974,1.9738,1.974,1.9792,1.9794,1.9795,1.9796,0,1.9735,1.9725,1.9739,1.975,1.9761,1.9769,1.9774,1.9785,1.976,1.9773,1.9791,1.9799,1.9816,1.9831,1.9841,1.9838,1.9813,1.981,1.9819,1.9826,1.9831,1.9828,1.9694,1.9807,1.9806,1.9805,1.9804,1.9804,1.9813,1.9833,1.9832,1.9849,1.985,1.9856,1.9874,1.9865,1.988,1.9892,1.9877,1.9899,1.9899,1.9909,1.9909,1.9926,1.9907,1.992,1.9923,1.9927,1.9932,1.983,1.9928,1.9927,1.9927,1.9927,1.9927,0,1.9914,1.9912,1.9928,1.9936,1.9949,1.9925,1.9929,1.9942,1.9962,1.9964,1.9975,1.9996,2.0011,2.0001,2.0014,2.0029,2.0018,2.0033,2.0031,2.0031,1.9949,1.9939,2.0042,2.0042,2.0042,2.0042,2.0042,2.0042,1.9969,2.0002,1.9993,2.0028,2.0025,2.0046,2.0051,2.0056,2.0058,2.0082,2.0095,2.0088,2.0086,2.0098,2.0111,2.0107,2.0113,2.0133,2.0125,2.0048,2.0037,2.0026,2.0017,2.0134,2.0134,2.0206,2.0207,2.0207]}]]